• In Deutschland
  • Länderverzeichnis
  • Für 7 Tage
  • Wassertemperatur
  • Satellitenkarten
  • Wetterkarte
  • Widgets
  • user-avatar
    Anmelden

    Stündliche Wetter Fier

    Heute, 23 Juli, Sonntag

    Zeit Temperatur Niederschläge Wind Luftdruck Luftfeuchtigkeit
    00:00 +28°C° 0 mm 2 m/S 760 mmHg 48%
    01:00 +28°C° 0 mm 2 m/S 760 mmHg 48%
    02:00 +27°C° 0 mm 2 m/S 760 mmHg 47%
    03:00 +27°C° 0 mm 2 m/S 760 mmHg 46%
    04:00 +27°C° 0 mm 2 m/S 760 mmHg 45%
    05:00 +29°C° 0 mm 2 m/S 760 mmHg 41%
    06:00 +31°C° 0 mm 2 m/S 760 mmHg 38%
    07:00 +34°C° 0 mm 2 m/S 760 mmHg 34%
    08:00 +36°C° 0 mm 2 m/S 760 mmHg 31%
    09:00 +37°C° 0 mm 2 m/S 760 mmHg 28%
    10:00 +38°C° 0 mm 3 m/S 760 mmHg 25%
    11:00 +39°C° 0 mm 3 m/S 759 mmHg 25%
    12:00 +40°C° 0 mm 3 m/S 759 mmHg 25%
    13:00 +41°C° 0 mm 4 m/S 759 mmHg 24%
    14:00 +40°C° 0 mm 3 m/S 758 mmHg 27%
    15:00 +39°C° 0 mm 3 m/S 758 mmHg 29%
    16:00 +39°C° 0 mm 3 m/S 758 mmHg 32%
    17:00 +36°C° 0 mm 3 m/S 758 mmHg 39%
    18:00 +34°C° 0 mm 2 m/S 758 mmHg 47%
    19:00 +30°C° 0 mm 1 m/S 758 mmHg 55%
    20:00 +29°C° 0 mm 1 m/S 758 mmHg 58%
    21:00 +28°C° 0 mm 1 m/S 759 mmHg 60%
    22:00 +27°C° 0 mm 1 m/S 759 mmHg 63%
    23:00 +27°C° 0 mm 1 m/S 759 mmHg 63%

    Morgen, 24 Juli, Montag

    Zeit Temperatur Niederschläge Wind Luftdruck Luftfeuchtigkeit
    00:00 +26°C° 0 mm 1 m/S 758 mmHg 63%
    01:00 +26°C° 0 mm 1 m/S 758 mmHg 62%
    02:00 +26°C° 0 mm 1 m/S 758 mmHg 61%
    03:00 +25°C° 0 mm 1 m/S 758 mmHg 59%
    04:00 +25°C° 0 mm 1 m/S 757 mmHg 57%
    05:00 +27°C° 0 mm 1 m/S 757 mmHg 51%
    06:00 +29°C° 0 mm 1 m/S 757 mmHg 46%
    07:00 +31°C° 0 mm 1 m/S 757 mmHg 40%
    08:00 +34°C° 0 mm 2 m/S 757 mmHg 35%
    09:00 +36°C° 0 mm 2 m/S 757 mmHg 31%
    10:00 +38°C° 0 mm 2 m/S 757 mmHg 26%
    11:00 +38°C° 0 mm 3 m/S 756 mmHg 24%
    12:00 +39°C° 0 mm 3 m/S 755 mmHg 22%
    13:00 +40°C° 0 mm 3 m/S 755 mmHg 20%
    14:00 +40°C° 0 mm 3 m/S 754 mmHg 21%
    15:00 +40°C° 0 mm 3 m/S 754 mmHg 22%
    16:00 +39°C° 0 mm 3 m/S 753 mmHg 23%
    17:00 +37°C° 0 mm 3 m/S 753 mmHg 28%
    18:00 +34°C° 0 mm 3 m/S 753 mmHg 34%
    19:00 +31°C° 0 mm 3 m/S 753 mmHg 40%
    20:00 +30°C° 0 mm 4 m/S 753 mmHg 41%
    21:00 +29°C° 0 mm 4 m/S 753 mmHg 43%
    22:00 +28°C° 0 mm 5 m/S 753 mmHg 44%
    23:00 +28°C° 0 mm 5 m/S 753 mmHg 45%

    übermorgen, 25 Juli, Dienstag

    Zeit Temperatur Niederschläge Wind Luftdruck Luftfeuchtigkeit
    00:00 +27°C° 0 mm 6 m/S 752 mmHg 46%
    01:00 +27°C° 0 mm 6 m/S 752 mmHg 47%
    02:00 +26°C° 0 mm 6 m/S 752 mmHg 49%
    03:00 +26°C° 0 mm 5 m/S 752 mmHg 52%
    04:00 +25°C° 0 mm 5 m/S 752 mmHg 54%
    05:00 +26°C° 0 mm 4 m/S 752 mmHg 54%
    06:00 +28°C° 0 mm 4 m/S 752 mmHg 55%
    07:00 +29°C° 0 mm 4 m/S 752 mmHg 56%
    08:00 +30°C° 0 mm 4 m/S 751 mmHg 50%
    09:00 +33°C° 0 mm 5 m/S 751 mmHg 44%
    10:00 +34°C° 0 mm 5 m/S 751 mmHg 38%
    11:00 +34°C° 0 mm 5 m/S 751 mmHg 36%
    12:00 +35°C° 0 mm 6 m/S 751 mmHg 34%
    13:00 +35°C° 0 mm 6 m/S 751 mmHg 32%
    14:00 +34°C° 0 mm 6 m/S 751 mmHg 33%
    15:00 +34°C° 0 mm 6 m/S 751 mmHg 34%
    16:00 +34°C° 0 mm 6 m/S 751 mmHg 35%
    17:00 +32°C° 0 mm 6 m/S 751 mmHg 41%
    18:00 +29°C° 0 mm 5 m/S 751 mmHg 47%
    19:00 +27°C° 0 mm 5 m/S 751 mmHg 52%
    20:00 +26°C° 0 mm 5 m/S 751 mmHg 55%
    21:00 +26°C° 0 mm 5 m/S 752 mmHg 57%
    22:00 +25°C° 0 mm 5 m/S 752 mmHg 59%
    23:00 +23°C° 0 mm 4 m/S 752 mmHg 60%

    26 Juli, Mittwoch

    Zeit Temperatur Niederschläge Wind Luftdruck Luftfeuchtigkeit
    00:00 +23°C° 0 mm 4 m/S 752 mmHg 62%
    01:00 +22°C° 0 mm 4 m/S 752 mmHg 63%
    02:00 +22°C° 0 mm 4 m/S 751 mmHg 64%
    03:00 +22°C° 0 mm 4 m/S 751 mmHg 65%
    04:00 +21°C° 0 mm 3 m/S 751 mmHg 67%
    05:00 +23°C° 0 mm 4 m/S 751 mmHg 64%
    06:00 +26°C° 0 mm 4 m/S 751 mmHg 61%
    07:00 +27°C° 0 mm 4 m/S 751 mmHg 59%
    08:00 +29°C° 0 mm 4 m/S 752 mmHg 54%
    09:00 +30°C° 0 mm 4 m/S 752 mmHg 50%
    10:00 +32°C° 0 mm 5 m/S 752 mmHg 45%
    11:00 +33°C° 0 mm 5 m/S 752 mmHg 44%
    12:00 +33°C° 0 mm 5 m/S 752 mmHg 42%
    13:00 +33°C° 0 mm 5 m/S 751 mmHg 40%
    14:00 +33°C° 0 mm 5 m/S 751 mmHg 40%
    15:00 +33°C° 0 mm 5 m/S 751 mmHg 40%
    16:00 +32°C° 0 mm 5 m/S 751 mmHg 41%
    17:00 +30°C° 0 mm 5 m/S 752 mmHg 48%
    18:00 +28°C° 0 mm 4 m/S 752 mmHg 55%
    19:00 +26°C° 0 mm 4 m/S 752 mmHg 62%
    20:00 +25°C° 0,1 mm 4 m/S 752 mmHg 66%
    21:00 +23°C° 0,1 mm 4 m/S 753 mmHg 71%
    22:00 +22°C° 0,1 mm 4 m/S 753 mmHg 76%
    23:00 +22°C° 0,1 mm 4 m/S 753 mmHg 77%

    27 Juli, Donnerstag

    Zeit Temperatur Niederschläge Wind Luftdruck Luftfeuchtigkeit
    00:00 +22°C° 0,1 mm 4 m/S 753 mmHg 79%
    01:00 +21°C° 0,1 mm 4 m/S 753 mmHg 80%
    02:00 +21°C° 0,1 mm 4 m/S 753 mmHg 82%
    03:00 +21°C° 0,1 mm 4 m/S 753 mmHg 83%
    04:00 +20°C° 0,1 mm 4 m/S 753 mmHg 85%
    05:00 +22°C° 0,1 mm 4 m/S 754 mmHg 77%
    06:00 +25°C° 0,1 mm 4 m/S 754 mmHg 70%
    07:00 +26°C° 0,1 mm 4 m/S 754 mmHg 62%
    08:00 +28°C° 0,1 mm 4 m/S 754 mmHg 55%
    09:00 +29°C° 0,1 mm 4 m/S 754 mmHg 48%
    10:00 +31°C° 0,1 mm 3 m/S 754 mmHg 41%
    11:00 +32°C° 0,1 mm 4 m/S 754 mmHg 40%
    12:00 +32°C° 0,1 mm 4 m/S 754 mmHg 39%
    13:00 +33°C° 0,1 mm 5 m/S 754 mmHg 39%
    14:00 +32°C° 0,2 mm 5 m/S 754 mmHg 42%
    15:00 +30°C° 0,2 mm 4 m/S 754 mmHg 46%
    16:00 +30°C° 0,2 mm 4 m/S 754 mmHg 50%
    17:00 +28°C° 0,3 mm 3 m/S 755 mmHg 56%
    18:00 +27°C° 0,3 mm 3 m/S 755 mmHg 62%
    19:00 +26°C° 0,3 mm 2 m/S 755 mmHg 68%
    20:00 +25°C° 0,5 mm 2 m/S 756 mmHg 72%
    21:00 +24°C° 0,5 mm 2 m/S 756 mmHg 76%
    22:00 +23°C° 0,5 mm 2 m/S 757 mmHg 81%
    23:00 +23°C° 0,1 mm 2 m/S 757 mmHg 80%

    28 Juli, Freitag

    Zeit Temperatur Niederschläge Wind Luftdruck Luftfeuchtigkeit
    00:00 +23°C° 0,1 mm 2 m/S 757 mmHg 79%
    01:00 +23°C° 0,1 mm 2 m/S 757 mmHg 79%
    02:00 +21°C° 0,1 mm 2 m/S 757 mmHg 79%
    03:00 +21°C° 0,1 mm 2 m/S 757 mmHg 79%
    04:00 +21°C° 0,1 mm 2 m/S 757 mmHg 78%
    05:00 +23°C° 0 mm 2 m/S 757 mmHg 73%
    06:00 +24°C° 0 mm 2 m/S 757 mmHg 67%
    07:00 +26°C° 0 mm 1 m/S 758 mmHg 62%
    08:00 +28°C° 0 mm 2 m/S 758 mmHg 55%
    09:00 +29°C° 0 mm 2 m/S 758 mmHg 48%
    10:00 +31°C° 0 mm 2 m/S 758 mmHg 42%
    11:00 +33°C° 0 mm 3 m/S 758 mmHg 40%
    12:00 +33°C° 0 mm 4 m/S 758 mmHg 38%
    13:00 +34°C° 0 mm 5 m/S 758 mmHg 37%
    14:00 +33°C° 0 mm 5 m/S 758 mmHg 39%
    15:00 +33°C° 0 mm 6 m/S 758 mmHg 41%
    16:00 +32°C° 0 mm 6 m/S 758 mmHg 43%
    17:00 +30°C° 0 mm 5 m/S 758 mmHg 50%
    18:00 +28°C° 0 mm 4 m/S 758 mmHg 57%
    19:00 +26°C° 0 mm 4 m/S 758 mmHg 63%
    20:00 +25°C° 0 mm 3 m/S 759 mmHg 67%
    21:00 +24°C° 0 mm 3 m/S 759 mmHg 71%
    22:00 +23°C° 0 mm 2 m/S 760 mmHg 74%
    23:00 +23°C° 0 mm 2 m/S 760 mmHg 74%
    Mehr zeigen